Location: Deuil
(48.9767°N, 2.3272°E)
Time: 10:43:39
(UTC+00:00)

Cosmos 2228 - Pass Details

Date: 01 June 2022
Orbit: 586 x 617 km, 82.5° (Epoch: 01 July)

Event Time Altitude Azimuth Distance (km) Brightness Sun altitude
Rises 01:29:50 0° 351° (N) 2,886 7.5 -15.5°
Reaches altitude 10° 01:32:05 10° 353° (N) 1,972 6.5 -15.3°
Maximum altitude 01:36:27 78° 79° (ENE) 624 3.1 -15.0°
Enters shadow 01:39:44 17° 165° (SSE) 1,535 4.6 -14.8°
